Weather in Haikou

China     20°00′49″N   110°18′17″E
temp.,
°C
wind,
m/s
gust,
m/s
humid.,
%
clouds,
%
prec.,
mm/h
press.,
hPa
HPBL,
m
13 june, sun
sun1323:00+26se6118980 0.1 1005492
02:00+26se498967 0.1 1004457
05:00+26se4109097 0.0 1004524
08:00+28se5118581 0.0 1005673
11:00+32sse676670 0.0 10051000
14:00+33sse7761100 1.1 10041197
17:00+31sse796832 0.3 1002887
20:00+28sse3684100 1.9 1004390
14 june, mon
mon1423:00+27sse3687100 0.6 1006243
02:00+26sw3590100 1.1 1005175
05:00+26sw2386100 0.6 1004125
08:00+27s2382100 0.6 1006173
11:00+31ssw2461100 0.0 1005884
14:00+33wsw2455100 0.0 10031450
17:00+31ne3368100 0.0 1002183
20:00+29e2376100 0.3 100374
15 june, tue
tue1523:00+28s1280100 0.0 100471
02:00+27ssw2479100 0.0 1003109
05:00+26s2379100 0.1 100285
08:00+28sse357199 0.1 1004217
11:00+33ssw34556 0.0 1003952
14:00+34wnw245153 0.0 10011622
17:00+33ese1356100 0.0 1000647
20:00+29ese347510 0.0 1002120
16 june, wed
wed1623:00+29s2376100 0.0 100384
02:00+27ssw357644 0.0 1002137
05:00+27s257576 0.0 1003151
08:00+28s3572100 0.0 1004278
11:00+33ssw2257100 0.0 1004926
14:00+34nw3454100 0.0 10021398
17:00+31nw3465100 0.0 1002390
20:00+29nnw3379100 0.1 1003120
17 june, thu
thu1723:00+29ese0180100 0.0 100437
02:00+28se2379100 0.0 1004114
05:00+27s237783 0.0 100485
08:00+29se3469100 0.0 1005247
11:00+33s3357100 0.0 1005909
14:00+33wsw2355100 0.0 10031238
17:00+33nnw335784 0.0 1002924
20:00+30nne237296 0.6 1003190